Home > Weather > Fauske > Past weeks

Flag for Norway Past Weather in Fauske, Norway — Yesterday and Last 2 Weeks

Now
55 °F

Partly sunny.


Feels Like: 55 °F
Forecast: 58 / 73 °F
Wind: 3 mph from Northwest

Location: Bodo Vi

Current Time: Jul 1, 2016 at 3:33:16 PM

Latest Report: Jul 1, 2016 at 2:50 PM


Visibility: N/A

Pressure: 29.74 "Hg

Humidity: 82%

Dew Point: 50 °F

Location of FauskeLocation

Past Weather in Fauske — Graph

°F

Fauske Temperature Yesterday

Maximum temperature yesterday: 73 °F (at 2:20 PM)
Minimum temperature yesterday: 54 °F (at 12:50 AM)
Average temperature yesterday: 65 °F

High & Low Weather Summary for the Past Weeks

 TemperatureHumidityPressure
High73 °F (Jun 27, 12:20 PM)100% (Jun 18, 5:20 PM)30.15 "Hg (Jun 18, 5:20 PM)
Low45 °F (Jun 19, 11:50 PM)38% (Jun 27, 12:20 PM)29.62 "Hg (Jun 27, 2:20 PM)
Average54 °F81%29.86 "Hg
* Reported Jun 16 2:20 PM — Jul 1 2:20 PM, Fauske, Weather by CustomWeather, © 2016

Note: Actual official high and low records may vary slightly from our data, if they occured in-between our weather recording intervals... More about our weather records

Advertising

Fauske Weather History for the Previous 24 Hours

Scroll right to see more
 ConditionsComfort  
Time TempWeatherWind HumidityBarometerVisibility
2:20 PM
Fri, Jul 1
55 °FPartly sunny.3 mph82%29.74 "HgN/A
1:50 PM55 °FPartly sunny.5 mph82%29.74 "HgN/A
1:20 PM55 °FPartly sunny.5 mph82%29.74 "HgN/A
12:50 PM55 °FBroken clouds.5 mph88%29.77 "HgN/A
12:20 PM54 °FBroken clouds.7 mph88%29.77 "HgN/A
11:50 AM54 °FBroken clouds.8 mph94%29.74 "HgN/A
11:20 AM54 °FBroken clouds.7 mph94%29.74 "HgN/A
10:50 AM54 °FBroken clouds.6 mph94%29.74 "HgN/A
10:20 AM55 °FBroken clouds.6 mph88%29.74 "HgN/A
9:50 AM54 °FBroken clouds.10 mph100%29.71 "HgN/A
9:20 AM54 °FPartly sunny.12 mph100%29.71 "HgN/A
8:50 AM54 °FBroken clouds.12 mph100%29.71 "HgN/A
8:20 AM54 °FBroken clouds.15 mph94%29.68 "HgN/A
7:50 AM54 °FBroken clouds.15 mph94%29.68 "HgN/A
7:20 AM54 °FBroken clouds.14 mph94%29.68 "HgN/A
6:50 AM59 °FSprinkles. Broken clouds.5 mph77%29.65 "HgN/A
6:20 AM59 °FSprinkles. Broken clouds.7 mph72%29.65 "HgN/A
5:50 AM61 °FPartly sunny.7 mph68%29.65 "HgN/A
5:20 AM61 °FPartly sunny.10 mph72%29.62 "HgN/A
4:50 AM57 °FPartly sunny.10 mph77%29.62 "HgN/A
3:50 AM59 °FLight rain. Partly sunny.12 mph72%29.62 "HgN/A
2:50 AM61 °FLight rain. Partly sunny.8 mph68%29.62 "HgN/A
1:50 AM61 °FPartly sunny.7 mph68%29.65 "HgN/A
12:50 AM61 °FBroken clouds.8 mph63%29.65 "HgN/A
11:50 PM
Thu, Jun 30
63 °FScattered clouds.12 mph59%29.65 "HgN/A
11:20 PM63 °FScattered clouds.13 mph59%29.65 "HgN/A
10:50 PM63 °FScattered clouds.16 mph59%29.65 "HgN/A
10:20 PM64 °FScattered clouds.15 mph56%29.65 "HgN/A
9:50 PM64 °FBroken clouds.16 mph56%29.65 "HgN/A
9:20 PM64 °FBroken clouds.14 mph52%29.65 "HgN/A
8:50 PM66 °FPartly sunny.15 mph52%29.65 "HgN/A
8:20 PM63 °FPartly sunny.9 mph59%29.65 "HgN/A
7:50 PM66 °FPartly sunny.8 mph52%29.65 "HgN/A
7:20 PM66 °FPartly sunny.10 mph52%29.65 "HgN/A
6:50 PM66 °FScattered showers. Partly sunny.9 mph52%29.65 "HgN/A
6:20 PM66 °FPartly sunny.15 mph52%29.65 "HgN/A
5:50 PM68 °FBroken clouds.16 mph49%29.65 "HgN/A
5:20 PM70 °FBroken clouds.12 mph46%29.65 "HgN/A
4:50 PM70 °FScattered clouds.6 mph50%29.65 "HgN/A
4:20 PM70 °FScattered clouds.8 mph50%29.68 "HgN/A
3:50 PM72 °FScattered clouds.12 mph47%29.68 "HgN/A
3:20 PM73 °FScattered clouds.12 mph47%29.68 "HgN/A
Weather by CustomWeather, © 2016

See weather overviewHow to use our weather pages